Weather History for KFAR - January, 2013

Change the Weather History Date:

Friday, January 11, 2013

  Actual Average Record
Temperature  
Mean Temperature 24 °F 9 °F  
Max Temperature 35 °F 18 °F 46 °F (1987)
Min Temperature 12 °F 0 °F -44 °F (1888)
Degree Days  
Heating Degree Days 41 56  
Month to date heating degree days 517 612  
Since 1 July heating degree days 3977 4152  
Cooling Degree Days 0 0  
Month to date cooling degree days 0 0  
Year to date cooling degree days 0 0  
Moisture  
Dew Point 21 °F    
Average Humidity 88    
Maximum Humidity 96    
Minimum Humidity 80    
Precipitation  
Precipitation 0.14 in 0.03 in 0.38 in (1988)
Month to date precipitation 0.22 0.28  
Year to date precipitation 0.22 0.28  
Snow  
Snow 0.80 in 0.40 in 5.30 in (1988)
Month to date snowfall 1.0 4.4  
Since 1 July snowfall 14.5 24.2  
Snow Depth 1.00 in    
Sea Level Pressure  
Sea Level Pressure 29.50 in    
Wind  
Wind Speed 17 mph (North)    
Max Wind Speed 31 mph    
Max Gust Speed 39 mph    
Visibility 2 miles    
Events Fog , Rain , Snow    
T = Trace of Precipitation, MM = Missing Value Source: NWS Daily Summary

Daily Weather History Graph

Daily Weather History Graph

Search for Another Location

Airport or City:

Trip Planner

Search our weather history database for the weather conditions in past years. The results will help you decide how hot, cold, wet, or windy it might be!

Date:

Astronomy

Jan. 11, 2013 Rise Set
Actual Time 8:10 AM CST 5:00 PM CST
Civil Twilight 7:35 AM CST 5:35 PM CST
Nautical Twilight 6:57 AM CST 6:13 PM CST
Astronomical Twilight 6:21 AM CST 6:49 PM CST
Moon 7:41 AM CST (1/11) 5:24 PM CST (1/11)
Length of Visible Light 9h 59m
Length of Day
8h 50m
Waning Crescent, 0% of the Moon is Illuminated
Jan 11
Waning Crescent
Jan 11
New
Jan 18
First Quarter
Jan 26
Full
Feb 3
Last Quarter

Hourly Weather History & Observations

Time (CST) Temp. Windchill Dew Point Humidity Pressure Visibility Wind Dir Wind Speed Gust Speed Precip Events Conditions
12:16 AM 35.6 °F 25.9 °F 30.2 °F 81% 29.54 in 4.0 mi SSE 16.1 mph 26.5 mph 0.00 in Rain Light Rain
12:53 AM 35.1 °F 25.2 °F 30.9 °F 85% 29.55 in 5.0 mi SSE 16.1 mph 25.3 mph 0.00 in   Overcast
1:53 AM 35.1 °F 25.9 °F 30.9 °F 85% 29.55 in 6.0 mi SSE 13.8 mph - N/A   Overcast
2:18 AM 35.6 °F 27.5 °F 32.0 °F 87% 29.52 in 2.0 mi SSE 11.5 mph - N/A   Overcast
2:44 AM 35.6 °F 26.6 °F 32.0 °F 87% 29.52 in 2.0 mi SSE 13.8 mph - N/A   Overcast
2:53 AM 35.1 °F 26.4 °F 32.0 °F 89% 29.55 in 2.0 mi SSE 12.7 mph - N/A   Overcast
3:00 AM 35.6 °F 26.2 °F 32.0 °F 87% 29.51 in 1.5 mi SSE 15.0 mph - N/A   Overcast
3:53 AM 35.1 °F 26.9 °F 32.0 °F 89% 29.52 in 2.0 mi SSE 11.5 mph - 0.01 in Rain Light Rain
4:46 AM 35.6 °F 28.6 °F 32.0 °F 87% 29.49 in 1.8 mi SSE 9.2 mph - 0.00 in Rain Light Rain
4:53 AM 35.1 °F 27.9 °F 32.0 °F 89% 29.52 in 1.5 mi SSE 9.2 mph - 0.00 in Rain Light Rain
5:53 AM 35.6 °F 28.6 °F 32.0 °F 87% 29.47 in 1.5 mi SSE 9.2 mph - N/A   Overcast
6:53 AM 35.1 °F 30.1 °F 32.0 °F 89% 29.50 in 1.5 mi SSE 5.8 mph - 0.01 in   Overcast
7:53 AM 35.1 °F - 32.0 °F 89% 29.50 in 1.2 mi Calm Calm - N/A   Overcast
8:25 AM 33.8 °F - 32.0 °F 93% 29.47 in 0.8 mi Calm Calm - N/A   Overcast
8:53 AM 34.0 °F 29.8 °F 32.0 °F 92% 29.51 in 0.2 mi NNW 4.6 mph - N/A Fog Fog
9:13 AM 32.0 °F 23.0 °F 30.2 °F 93% 29.49 in 0.5 mi North 11.5 mph 16.1 mph 0.00 in Fog , Rain Light Freezing Rain
9:21 AM 32.0 °F 22.1 °F 30.2 °F 93% 29.49 in 1.0 mi North 13.8 mph - 0.00 in Snow Light Snow
9:53 AM 30.9 °F 19.8 °F 28.9 °F 92% 29.49 in 1.0 mi North 16.1 mph - 0.00 in Rain Light Freezing Rain
10:53 AM 28.9 °F 18.2 °F 26.1 °F 89% 29.53 in 1.2 mi North 13.8 mph - 0.00 in Rain Light Freezing Rain
11:16 AM 28.4 °F 17.0 °F 26.6 °F 93% 29.50 in 0.8 mi North 15.0 mph - N/A Snow Light Snow
11:32 AM 28.4 °F 15.8 °F 24.8 °F 86% 29.48 in 1.0 mi North 18.4 mph - 0.00 in Rain Light Freezing Rain
11:53 AM 28.0 °F 15.3 °F 25.0 °F 88% 29.49 in 1.2 mi North 18.4 mph - 0.00 in Rain Light Freezing Rain
12:31 PM 26.6 °F 13.1 °F 23.0 °F 86% 29.47 in 2.0 mi NNW 19.6 mph - 0.00 in Rain Light Freezing Rain
12:53 PM 26.1 °F 13.6 °F 23.0 °F 88% 29.50 in 2.5 mi North 16.1 mph - 0.00 in Rain Light Freezing Rain
1:03 PM 24.8 °F 11.1 °F 21.2 °F 86% 29.46 in 3.0 mi North 18.4 mph - 0.00 in Rain Light Freezing Rain
1:13 PM 24.8 °F 11.5 °F 21.2 °F 86% 29.45 in 3.0 mi North 17.3 mph - 0.00 in   Overcast
1:53 PM 24.1 °F 9.8 °F 21.0 °F 88% 29.50 in 4.0 mi North 19.6 mph - 0.00 in   Overcast
2:31 PM 23.0 °F 8.3 °F 19.4 °F 86% 29.47 in 2.5 mi NNW 19.6 mph - N/A   Overcast
2:44 PM 21.2 °F 4.9 °F 19.4 °F 93% 29.47 in 2.0 mi NNW 23.0 mph - 0.00 in Rain Light Freezing Rain
2:53 PM 21.9 °F 6.2 °F 19.0 °F 89% 29.50 in 1.5 mi NNW 21.9 mph - 0.00 in Snow Light Snow
3:30 PM 21.2 °F 4.5 °F 17.6 °F 86% 29.45 in 0.8 mi North 24.2 mph 28.8 mph 0.00 in Snow Light Snow
3:53 PM 19.9 °F 3.9 °F 16.0 °F 85% 29.47 in 0.8 mi North 20.7 mph 31.1 mph 0.00 in Snow Light Snow
4:16 PM 19.4 °F 4.5 °F 15.8 °F 86% 29.46 in 1.0 mi North 17.3 mph - 0.00 in Snow Light Snow
4:53 PM 19.0 °F 4.0 °F 15.1 °F 85% 29.52 in 1.8 mi NNW 17.3 mph - 0.00 in Snow Light Snow
5:15 PM 19.4 °F 3.2 °F 15.8 °F 86% 29.46 in 1.2 mi NNW 20.7 mph - 0.00 in Snow Light Snow
5:53 PM 18.0 °F 0.9 °F 12.9 °F 81% 29.51 in 1.0 mi NNW 21.9 mph 32.2 mph 0.00 in Snow Light Snow
6:12 PM 17.6 °F 0.1 °F 12.2 °F 79% 29.47 in 0.8 mi NNW 23.0 mph 27.6 mph 0.01 in Snow Light Snow
6:41 PM 15.8 °F -1.5 °F 10.4 °F 79% 29.47 in 1.0 mi NNW 20.7 mph 33.4 mph 0.02 in Snow Light Snow
6:53 PM 16.0 °F -2.1 °F 12.0 °F 84% 29.51 in 1.0 mi NNW 23.0 mph 31.1 mph 0.02 in Snow Light Snow
7:53 PM 15.1 °F -3.3 °F 10.9 °F 84% 29.51 in 1.0 mi NNW 23.0 mph 31.1 mph 0.01 in Snow Light Snow
8:53 PM 15.1 °F -4.0 °F 10.0 °F 80% 29.52 in 1.2 mi NNW 25.3 mph 32.2 mph 0.00 in Snow Light Snow
9:18 PM 15.8 °F -1.9 °F 10.4 °F 79% 29.48 in 1.5 mi North 21.9 mph 32.2 mph 0.00 in Snow Light Snow
9:45 PM 14.0 °F -3.4 °F 10.4 °F 86% 29.49 in 1.0 mi NNW 19.6 mph 28.8 mph 0.01 in Snow Light Snow
9:53 PM 14.0 °F -4.7 °F 10.0 °F 84% 29.53 in 1.0 mi NNW 23.0 mph 28.8 mph 0.01 in Snow Light Snow
10:00 PM 14.0 °F -4.7 °F 8.6 °F 79% 29.49 in 1.0 mi NNW 23.0 mph 31.1 mph 0.00 in Snow Light Snow
10:12 PM 14.0 °F -5.1 °F 10.4 °F 86% 29.49 in 0.8 mi NNW 24.2 mph 29.9 mph 0.00 in Snow Light Snow
10:38 PM 14.0 °F -4.7 °F 8.6 °F 79% 29.48 in 1.0 mi NNW 23.0 mph - 0.00 in Snow Light Snow
10:50 PM 14.0 °F -4.3 °F 8.6 °F 79% 29.48 in 0.8 mi NNW 21.9 mph 29.9 mph 0.00 in Snow Light Snow
10:53 PM 14.0 °F -5.1 °F 9.0 °F 80% 29.53 in 0.8 mi NNW 24.2 mph 29.9 mph 0.00 in Snow Light Snow
11:25 PM 12.2 °F -7.9 °F 8.6 °F 85% 29.50 in 1.0 mi NNW 25.3 mph 29.9 mph 0.00 in Snow Light Snow
11:53 PM 12.0 °F -9.5 °F 7.0 °F 80% 29.54 in 1.0 mi NNW 29.9 mph 35.7 mph 0.01 in Snow Light Snow